FLOCK 1C-11

Last updated on Wed Feb 14 2018 16:18:43 GMT+0000 (Coordinated Universal Time)

1 40033U 14033Z 18044.97973619 .00000305 00000-0 37211-4 0 9995 2 40033 97.9230 324.3193 0011241 211.8086 148.2452 14.90432139198608
UTC large
Height (km)
Speed (km/s)
/
Latitude / Longitude
Inclination (degrees)
Orbital Period (minutes)
Azimuth
Elevation
Range (km)
Doppler Factor

Next 0 passes for location: London (51.5072 / 0.1276)

Sorry there are no passes over London.